SAB406 EDDL-EBBR

Flight info

Callsign SAB406
Flight time 0h 25m
Altitude 22000
Route MODRU7Z/05R MODRU Z283 LNO
Aircraft RJ85/M-SDFGIRWY/LB1

Departure

Time 2026-05-07 18:19
Airport Düsseldorf Airport (EDDL)

Arrival

Time 2026-05-07 18:45
Airport Brussels Airport (EBBR)
Time Latitude Longitude Altitude Speed Heading
2026-05-07 17:55 51.27599 6.75959 130 ft 0 kts 63°
2026-05-07 18:15 51.27604 6.75973 127 ft 4 kts 63°
2026-05-07 18:15 51.27630 6.76032 126 ft 8 kts 22°
2026-05-07 18:15 51.27705 6.76042 128 ft 13 kts
2026-05-07 18:15 51.27797 6.76045 130 ft 10 kts
2026-05-07 18:16 51.27841 6.75996 129 ft 10 kts 281°
2026-05-07 18:16 51.27845 6.75874 129 ft 12 kts 273°
2026-05-07 18:16 51.27861 6.75740 126 ft 11 kts 277°
2026-05-07 18:16 51.27849 6.75618 127 ft 12 kts 231°
2026-05-07 18:17 51.27795 6.75506 125 ft 13 kts 233°
2026-05-07 18:17 51.27783 6.75401 124 ft 10 kts 315°
2026-05-07 18:17 51.27836 6.75353 124 ft 8 kts 333°
2026-05-07 18:17 51.27893 6.75309 124 ft 10 kts 334°
2026-05-07 18:18 51.27964 6.75253 120 ft 7 kts 335°
2026-05-07 18:18 51.28004 6.75287 119 ft 10 kts 53°
2026-05-07 18:18 51.28106 6.75507 124 ft 49 kts 53°
2026-05-07 18:18 51.28451 6.76228 128 ft 111 kts 52°
2026-05-07 18:19 51.29005 6.77367 309 ft 138 kts 53°
2026-05-07 18:19 51.29605 6.78565 913 ft 139 kts 51°
2026-05-07 18:19 51.30199 6.79765 1581 ft 140 kts 52°
2026-05-07 18:19 51.30802 6.81038 2132 ft 148 kts 52°
2026-05-07 18:20 51.31433 6.82385 2603 ft 155 kts 52°
2026-05-07 18:20 51.32113 6.83852 2754 ft 174 kts 53°
2026-05-07 18:20 51.32874 6.85494 2764 ft 193 kts 53°
2026-05-07 18:20 51.33717 6.87328 2816 ft 216 kts 53°
2026-05-07 18:21 51.34642 6.89359 3025 ft 234 kts 51°
2026-05-07 18:21 51.35986 6.90909 3247 ft 249 kts 16°
2026-05-07 18:21 51.37714 6.91443 3627 ft 255 kts
2026-05-07 18:21 51.39483 6.91905 4096 ft 259 kts
2026-05-07 18:22 51.41259 6.92331 4643 ft 258 kts
2026-05-07 18:22 51.42435 6.92594 5046 ft 258 kts
2026-05-07 18:22 51.44840 6.93130 5712 ft 263 kts
2026-05-07 18:22 51.46662 6.93475 6281 ft 263 kts 358°
2026-05-07 18:23 51.48373 6.92630 6788 ft 265 kts 324°
2026-05-07 18:23 51.49518 6.90329 7281 ft 270 kts 291°
2026-05-07 18:23 51.49724 6.87354 7871 ft 272 kts 261°
2026-05-07 18:23 51.48950 6.84567 8188 ft 278 kts 231°
2026-05-07 18:24 51.47505 6.82492 8564 ft 280 kts 222°
2026-05-07 18:24 51.46130 6.80278 8916 ft 281 kts 229°
2026-05-07 18:24 51.44849 6.77925 9294 ft 281 kts 235°
2026-05-07 18:24 51.43833 6.75248 9687 ft 280 kts 242°
2026-05-07 18:25 51.42907 6.72486 10048 ft 282 kts 243°
2026-05-07 18:25 51.41987 6.69697 10421 ft 283 kts 243°
2026-05-07 18:25 51.41073 6.66903 11040 ft 284 kts 243°
2026-05-07 18:25 51.40147 6.64055 11377 ft 299 kts 243°
2026-05-07 18:26 51.39147 6.61036 11724 ft 310 kts 242°
2026-05-07 18:26 51.38120 6.57961 12162 ft 318 kts 242°
2026-05-07 18:26 51.37058 6.54789 12493 ft 326 kts 242°
2026-05-07 18:26 51.35975 6.51576 12981 ft 328 kts 242°
2026-05-07 18:27 51.34867 6.48370 13463 ft 330 kts 241°
2026-05-07 18:27 51.33770 6.45180 13908 ft 332 kts 242°
2026-05-07 18:27 51.32669 6.41920 14289 ft 334 kts 242°
2026-05-07 18:27 51.31902 6.39680 14319 ft 344 kts 241°
2026-05-07 18:28 51.30354 6.35195 14706 ft 348 kts 242°
2026-05-07 18:28 51.29200 6.31788 15063 ft 350 kts 242°
2026-05-07 18:28 51.28029 6.28398 15370 ft 345 kts 241°
2026-05-07 18:28 51.27261 6.26188 15533 ft 344 kts 242°
2026-05-07 18:29 51.26112 6.22818 15782 ft 346 kts 242°
2026-05-07 18:29 51.24941 6.19414 15975 ft 354 kts 241°
2026-05-07 18:29 51.23745 6.15996 16032 ft 350 kts 241°
2026-05-07 18:29 51.22568 6.12577 16047 ft 352 kts 242°
2026-05-07 18:30 51.21391 6.09151 16059 ft 352 kts 241°
2026-05-07 18:30 51.20198 6.05752 16064 ft 350 kts 241°
2026-05-07 18:30 51.19021 6.02342 16065 ft 351 kts 242°
2026-05-07 18:30 51.17850 5.98949 15747 ft 353 kts 241°
2026-05-07 18:31 51.16657 5.95557 15366 ft 350 kts 241°
2026-05-07 18:31 51.15466 5.92173 14989 ft 349 kts 241°
2026-05-07 18:31 51.14298 5.88803 14625 ft 346 kts 241°
2026-05-07 18:31 51.13129 5.85452 14236 ft 346 kts 241°
2026-05-07 18:32 51.11951 5.82103 13852 ft 344 kts 241°
2026-05-07 18:32 51.10786 5.78795 13422 ft 341 kts 241°
2026-05-07 18:32 51.09625 5.75509 12996 ft 340 kts 241°
2026-05-07 18:32 51.08496 5.72265 12582 ft 338 kts 241°
2026-05-07 18:33 51.07351 5.69011 12174 ft 336 kts 241°
2026-05-07 18:33 51.06209 5.65768 11762 ft 335 kts 240°
2026-05-07 18:33 51.05071 5.62538 11361 ft 334 kts 240°
2026-05-07 18:33 51.03939 5.59325 10953 ft 332 kts 241°
2026-05-07 18:34 51.02816 5.56135 10548 ft 330 kts 240°
2026-05-07 18:34 51.01694 5.52956 10167 ft 329 kts 240°
2026-05-07 18:34 51.00579 5.49789 9759 ft 327 kts 240°
2026-05-07 18:34 50.99471 5.46650 9360 ft 325 kts 240°
2026-05-07 18:35 50.98368 5.43520 8971 ft 324 kts 240°
2026-05-07 18:35 50.97269 5.40405 8574 ft 322 kts 240°
2026-05-07 18:35 50.96175 5.37307 8186 ft 321 kts 240°
2026-05-07 18:35 50.95102 5.34266 7804 ft 319 kts 240°
2026-05-07 18:36 50.93997 5.31214 7419 ft 318 kts 240°
2026-05-07 18:36 50.92904 5.28183 7047 ft 316 kts 240°
2026-05-07 18:36 50.91833 5.25161 6789 ft 314 kts 240°
2026-05-07 18:36 50.90754 5.22135 6537 ft 314 kts 240°
2026-05-07 18:37 50.89669 5.19149 6279 ft 312 kts 239°
2026-05-07 18:37 50.88608 5.16227 6129 ft 300 kts 241°
2026-05-07 18:37 50.87972 5.13202 6079 ft 286 kts 268°
2026-05-07 18:37 50.88410 5.10232 5968 ft 276 kts 300°
2026-05-07 18:38 50.89558 5.07853 5805 ft 271 kts 310°
2026-05-07 18:38 50.90764 5.05564 5607 ft 269 kts 310°
2026-05-07 18:38 50.91976 5.03333 5413 ft 266 kts 312°
2026-05-07 18:38 50.93203 5.01144 5214 ft 264 kts 312°
2026-05-07 18:39 50.94389 4.98943 5013 ft 262 kts 303°
2026-05-07 18:39 50.94980 4.96310 4961 ft 254 kts 281°
2026-05-07 18:39 50.95350 4.93615 4960 ft 246 kts 284°
2026-05-07 18:39 50.95743 4.91009 4939 ft 240 kts 283°
2026-05-07 18:40 50.96117 4.88430 4836 ft 243 kts 283°
2026-05-07 18:40 50.96493 4.85772 4529 ft 250 kts 283°
2026-05-07 18:40 50.96858 4.83048 4222 ft 254 kts 280°
2026-05-07 18:40 50.96802 4.80281 3923 ft 250 kts 250°
2026-05-07 18:41 50.96113 4.77841 3611 ft 242 kts 245°
2026-05-07 18:41 50.95436 4.75451 3278 ft 230 kts 245°
2026-05-07 18:41 50.94794 4.73204 2969 ft 216 kts 245°
2026-05-07 18:41 50.94222 4.71062 2698 ft 205 kts 249°
2026-05-07 18:42 50.93743 4.69030 2460 ft 188 kts 249°
2026-05-07 18:42 50.93291 4.67087 2193 ft 189 kts 249°
2026-05-07 18:42 50.92848 4.65163 1919 ft 182 kts 250°
2026-05-07 18:42 50.92428 4.63335 1679 ft 169 kts 250°
2026-05-07 18:43 50.92033 4.61615 1449 ft 165 kts 250°
2026-05-07 18:43 50.91641 4.59914 1214 ft 164 kts 250°
2026-05-07 18:43 50.91261 4.58260 980 ft 156 kts 250°
2026-05-07 18:43 50.90898 4.56688 769 ft 150 kts 250°
2026-05-07 18:44 50.90539 4.55145 577 ft 148 kts 250°
2026-05-07 18:44 50.90187 4.53619 376 ft 147 kts 250°
2026-05-07 18:44 50.89845 4.52126 205 ft 143 kts 251°
2026-05-07 18:44 50.89557 4.50859 174 ft 91 kts 250°
2026-05-07 18:45 50.89507 4.50187 172 ft 41 kts 280°
2026-05-07 18:45 50.89518 4.49852 167 ft 25 kts 251°
2026-05-07 18:45 50.89459 4.49606 167 ft 21 kts 249°
2026-05-07 18:45 50.89467 4.49462 165 ft 13 kts 300°
2026-05-07 18:46 50.89519 4.49346 162 ft 13 kts 306°
2026-05-07 18:46 50.89563 4.49260 157 ft 7 kts 315°
2026-05-07 18:46 50.89574 4.49247 156 ft 2 kts 328°
2026-05-07 18:46 50.89599 4.49204 155 ft 8 kts 300°
2026-05-07 18:47 50.89658 4.49151 151 ft 14 kts 13°
2026-05-07 18:47 50.89771 4.49197 145 ft 19 kts 14°
2026-05-07 18:47 50.89921 4.49259 136 ft 25 kts 14°
2026-05-07 18:47 50.90098 4.49329 127 ft 26 kts 15°
2026-05-07 18:48 50.90267 4.49399 126 ft 20 kts 15°
2026-05-07 18:48 50.90369 4.49341 123 ft 14 kts 315°
2026-05-07 18:48 50.90369 4.49205 123 ft 14 kts 244°
2026-05-07 18:48 50.90329 4.49070 122 ft 13 kts 245°
2026-05-07 18:49 50.90294 4.48948 124 ft 11 kts 245°
2026-05-07 18:49 50.90263 4.48840 121 ft 10 kts 245°
2026-05-07 18:49 50.90241 4.48751 123 ft 6 kts 271°
2026-05-07 18:49 50.90276 4.48710 121 ft 8 kts 334°
2026-05-07 18:50 50.90313 4.48683 120 ft 3 kts 335°
2026-05-07 18:50 50.90314 4.48683 120 ft 0 kts 335°